Tracking 33404 objects as of 6-Mar-2026
HD Live streaming from Space Station
objects crossing your sky now

STARLINK-1320

Track STARLINK-1320 now!
10-day predictions
STARLINK-1320 is classified as:


NORAD ID: 45572
Int'l Code: 2020-025AT
Perigee: 366.5 km
Apogee: 376.6 km
Inclination: 53.1 °
Period: 91.8 minutes
Semi major axis: 6742 km
RCS: Unknown
Launch date: April 22, 2020
Source: United States (US)
Launch site: AIR FORCE EASTERN TEST RANGE (AFETR)
Your satellite tracking list
Your tracking list is empty




NASA's NSSDC Master Catalog

Two Line Element Set (TLE):
1 45572U 20025AT  26065.23822201  .00082131  00000-0  72236-3 0  9999
2 45572  53.0511   2.7529 0007515  45.1268 315.0357 15.68063422326269
Source of the keplerian elements: AFSPC